Kamloops, British Columbia

11:12 PM PST on December 07, 2016 (GMT -0800)
Kamloops

Weather History for CYKA - March, 2013

Change the Weather History Date:

Sunday, March 17, 2013

  Actual Average Record
Temperature  
Mean Temperature 40 °F -  
Max Temperature 47 °F 56 °F 59 °F (2007)
Min Temperature 33 °F 33 °F 15 °F (2002)
Degree Days  
Heating Degree Days 25    
Moisture  
Dew Point 23 °F    
Average Humidity 53    
Maximum Humidity 87    
Minimum Humidity 27    
Precipitation  
Precipitation 0.01 in 0.02 in - ()
Sea Level Pressure  
Sea Level Pressure 29.92 in    
Wind  
Wind Speed 14 mph ()    
Max Wind Speed 32 mph    
Max Gust Speed 39 mph    
Averages and records for this station are not official NWS values.
T = Trace of Precipitation, MM = Missing Value Source: Averaged Metar Reports

Daily Weather History Graph

Daily Weather History Graph

Search for Another Location

Airport or City:

Trip Planner

Search our weather history database for the weather conditions in past years. The results will help you decide how hot, cold, wet, or windy it might be!

Date:

Astronomy

Mar. 17, 2013 Rise Set
Actual Time 7:10 AM PDT 7:10 PM PDT
Civil Twilight 6:37 AM PDT 7:43 PM PDT
Nautical Twilight 5:59 AM PDT 8:21 PM PDT
Astronomical Twilight 5:19 AM PDT 9:01 PM PDT
Moon 9:51 AM PDT (3/17) 12:57 AM PDT (3/17)
Length of Visible Light 13h 05m
Length of Day
12h 00m
Waxing Crescent, 32% of the Moon is Illuminated
Mar 17
Waxing Crescent
Mar 19
First Quarter
Mar 27
Full
Apr 2
Last Quarter
Apr 10
New

Hourly Weather History & Observations

Time (PDT) Temp. Windchill Dew Point Humidity Pressure Visibility Wind Dir Wind Speed Gust Speed Precip Events Conditions
12:00 AM 39.2 °F 32.5 °F 33.8 °F 81% 29.70 in 40.0 mi WNW 10.4 mph - N/A   Overcast
1:00 AM 41.0 °F 31.4 °F 30.2 °F 65% 29.72 in 40.0 mi West 21.9 mph 27.6 mph N/A   Overcast
2:00 AM 39.2 °F 28.5 °F 23.0 °F 52% 29.76 in 40.0 mi WNW 24.2 mph 32.2 mph N/A   Overcast
3:00 AM 39.2 °F 28.3 °F 23.0 °F 52% 29.80 in 40.0 mi West 25.3 mph 38.0 mph N/A   Overcast
4:00 AM 37.4 °F 24.6 °F 19.4 °F 48% 29.84 in 40.0 mi West 32.2 mph 39.1 mph N/A   Overcast
5:00 AM 36 °F - 20 °F 38% 29.87 in 37 mi WNW 23.0 mph - -   Partly Cloudy
5:00 AM 35.6 °F 25.5 °F 19.4 °F 52% 29.87 in 40.0 mi WNW 17.3 mph 34.5 mph N/A   Mostly Cloudy
6:00 AM 37.4 °F 27.2 °F 19.4 °F 48% 29.91 in 40.0 mi West 19.6 mph 32.2 mph N/A   Mostly Cloudy
7:00 AM 35.6 °F 26.2 °F 19.4 °F 52% 29.94 in 40.0 mi WNW 15.0 mph 20.7 mph N/A   Overcast
8:00 AM 35.6 °F 24.8 °F 19.4 °F 52% 29.96 in 40.0 mi WNW 19.6 mph 25.3 mph N/A   Mostly Cloudy
9:00 AM 37.4 °F 29.3 °F 19.4 °F 48% 29.99 in 40.0 mi WNW 12.7 mph 23.0 mph N/A   Scattered Clouds
10:00 AM 39.2 °F 32.5 °F 21.2 °F 49% 30.00 in 40.0 mi West 10.4 mph - N/A   Partly Cloudy
11:00 AM 41 °F - 19 °F 27% 30.01 in 37 mi West 16.1 mph - -   Scattered Clouds
11:00 AM 41.0 °F 32.8 °F 19.4 °F 42% 30.01 in 40.0 mi West 16.1 mph 21.9 mph N/A   Partly Cloudy
12:00 PM 42.8 °F 36.2 °F 19.4 °F 39% 30.00 in 40.0 mi West 12.7 mph - N/A   Partly Cloudy
1:00 PM 44.6 °F 39.2 °F 19.4 °F 37% 29.99 in 40.0 mi West 10.4 mph - N/A   Partly Cloudy
2:00 PM 46.4 °F 42.4 °F 17.6 °F 32% 29.96 in 40.0 mi West 8.1 mph - N/A   Partly Cloudy
3:00 PM 46.4 °F 41.5 °F 15.8 °F 29% 29.95 in 40.0 mi West 10.4 mph - N/A   Mostly Cloudy
4:00 PM 46.4 °F 40.1 °F 19.4 °F 34% 29.95 in 40.0 mi West 15.0 mph - N/A   Mostly Cloudy
5:00 PM 44 °F - 22 °F 28% 29.96 in 37 mi SSW 9.2 mph - -   Scattered Clouds
5:00 PM 44.6 °F 39.2 °F 21.2 °F 39% 29.96 in 40.0 mi SSE 10.4 mph 18.4 mph N/A   Mostly Cloudy
5:34 PM - - - N/A% - 40.0 mi South 12.7 mph 19.6 mph N/A Rain Light Rain Showers
6:00 PM 39.2 °F 33.6 °F 30.2 °F 70% 29.96 in 40.0 mi SE 8.1 mph - N/A Rain Light Rain Showers
6:45 PM - - - N/A% - 40.0 mi Calm Calm - N/A   Mostly Cloudy
7:00 PM 39.2 °F 35.9 °F 28.4 °F 65% 29.95 in 40.0 mi East 4.6 mph - N/A   Mostly Cloudy
8:00 PM 37.4 °F 30.8 °F 32.0 °F 81% 29.95 in 40.0 mi East 9.2 mph - N/A   Mostly Cloudy
9:00 PM 37.4 °F 30.3 °F 30.2 °F 75% 29.96 in 40.0 mi ESE 10.4 mph - N/A   Mostly Cloudy
10:00 PM 35.6 °F 30.7 °F 30.2 °F 81% 29.97 in 40.0 mi East 5.8 mph - N/A   Scattered Clouds
11:00 PM 33 °F - 30 °F 83% 29.97 in 37 mi Calm Calm - -   Partly Cloudy
11:00 PM 33.8 °F - 30.2 °F 87% 29.97 in 40.0 mi Calm Calm - N/A   Scattered Clouds